This is the latest recevied weather packets stored in our database for station/object WA1TYB-13. If no packets are shown the sender has not sent any weather packets the latest 1 day(s).
| Time | Temp. | Humidity | Pressure | Rain* | Wind** | Luminosity | Snow |
|---|---|---|---|---|---|---|---|
| 1778044761 | 1.67° C | 63% | 1021.6 hPa | 0 mm | 0.89 m/s, 216° | 0 W/m² | - |
| 1778044457 | 1.67° C | 65% | 1021.6 hPa | 0 mm | 0.45 m/s, 218° | 0 W/m² | - |
| 1778044154 | 1.67° C | 63% | 1021.6 hPa | 0 mm | 0 m/s | 0 W/m² | - |
| 1778043852 | 1.67° C | 62% | 1021.5 hPa | 0 mm | 0 m/s | 0 W/m² | - |
| 1778043551 | 1.67° C | 63% | 1021.6 hPa | 0 mm | 0.45 m/s, 16° | 0 W/m² | - |
| 1778043246 | 1.67° C | 64% | 1021.4 hPa | 0 mm | 0 m/s | 0 W/m² | - |
| 1778042942 | 1.67° C | 63% | 1021.5 hPa | 0 mm | 0 m/s | 0 W/m² | - |
| 1778042640 | 2.22° C | 62% | 1021.6 hPa | 0 mm | 0 m/s | 0 W/m² | - |
| 1778042337 | 2.22° C | 62% | 1021.6 hPa | 0 mm | 0.45 m/s, 266° | 0 W/m² | - |
| 1778042034 | 2.78° C | 60% | 1021.6 hPa | 0 mm | 0 m/s | 0 W/m² | - |
| 1778041732 | 2.78° C | 60% | 1021.6 hPa | 0 mm | 0.45 m/s, 294° | 0 W/m² | - |
| 1778041431 | 2.22° C | 62% | 1021.6 hPa | 0 mm | 1.34 m/s, 242° | 0 W/m² | - |
| 1778041129 | 1.67° C | 63% | 1021.7 hPa | 0 mm | 1.34 m/s, 233° | 0 W/m² | - |
| 1778040826 | 2.78° C | 61% | 1021.5 hPa | 0 mm | 1.34 m/s, 234° | 0 W/m² | - |
| 1778040523 | 3.33° C | 61% | 1021.6 hPa | 0 mm | 0.45 m/s, 85° | 0 W/m² | - |
| 1778040221 | 3.33° C | 60% | 1021.5 hPa | 0 mm | 0.45 m/s, 354° | 0 W/m² | - |
| 1778039917 | 3.89° C | 58% | 1021.6 hPa | 0 mm | 0.45 m/s, 44° | 0 W/m² | - |
| 1778039615 | 3.89° C | 58% | 1021.5 hPa | 0 mm | 1.34 m/s, 60° | 0 W/m² | - |
| 1778039311 | 3.33° C | 58% | 1021.7 hPa | 0 mm | 1.34 m/s, 13° | 0 W/m² | - |
| 1778039009 | 3.33° C | 57% | 1021.6 hPa | 0 mm | 0.89 m/s, 353° | 0 W/m² | - |
| 1778038706 | 3.89° C | 55% | 1021.5 hPa | 0 mm | 1.34 m/s, 22° | 0 W/m² | - |
| 1778038403 | 4.44° C | 54% | 1021.4 hPa | 0 mm | 1.34 m/s, 355° | 0 W/m² | - |
| 1778038099 | 4.44° C | 52% | 1021.5 hPa | 0 mm | 2.24 m/s, 336° | 0 W/m² | - |
| 1778037796 | 5° C | 51% | 1021.4 hPa | 0 mm | 1.79 m/s, 337° | 0 W/m² | - |
| 1778037493 | 5° C | 50% | 1021.3 hPa | 0 mm | 1.79 m/s, 347° | 0 W/m² | - |
* Rain latest hour (hover to see other rain measurements)
** Current wind speed in m/s (hover to see current wind gust speed)